Genco Leader — VRYR8 — position and weather

sailwx.info

Track history (hours):
 
Tides and Currents Weather Stations Pressure Air Temp Water Temp Dewpoint Dewpoint Depression Visibility Wind Speed Wind Dir Waves Ship Positions

Genco Leader

Last reported at 2016-Dec-02 23:32 UTC. Time now 2016-Dec-03 00:25 UTC.
Position N 31°41' E 121°11'.

Length 225 m; draft 12 m.

Type: Cargo ship. MMSI: 477132000.

Date/timePositionNaut miles runAvg speedWind from/ knotsBaromVisibWave heightAir tempDewpointWater temp
2016-Dec-02 23:32N 31°41' E 121°11'0 0.0
2016-Dec-02 22:29N 31°41' E 121°11'0 0.0
2016-Dec-02 21:32N 31°41' E 121°11'0 0.0
2016-Dec-02 20:32N 31°41' E 121°11'0 0.0
2016-Dec-02 19:33N 31°41' E 121°11'0 0.0
2016-Dec-02 18:29N 31°41' E 121°11'0 0.0
2016-Dec-02 17:32N 31°41' E 121°11'0 0.0
2016-Dec-02 16:32N 31°41' E 121°11'0 0.0
2016-Dec-02 15:32N 31°41' E 121°11'0 0.0
2016-Dec-02 08:30N 31°41' E 121°11'0 0.0
2016-Dec-02 07:21N 31°41' E 121°11'0 0.0
2016-Dec-02 06:30N 31°41' E 121°11'0 0.0
2016-Dec-02 05:30N 31°41' E 121°11'5 4.8
2016-Dec-02 04:33N 31°38' E 121°15'4 3.9
2016-Dec-02 03:30N 31°36' E 121°19'0 0.0
2016-Dec-02 02:30N 31°36' E 121°19'0 0.0
2016-Dec-02 01:33N 31°36' E 121°19'0 0.0
2016-Dec-02 00:33N 31°36' E 121°19'0 0.0
2016-Dec-01 23:33N 31°36' E 121°19'0 0.0
2016-Dec-01 22:30N 31°36' E 121°19'0 0.0
2016-Dec-01 21:30N 31°36' E 121°19'0 0.1
2016-Dec-01 20:30N 31°36' E 121°19'0 0.2
2016-Dec-01 19:33N 31°36' E 121°19'0 0.0
2016-Dec-01 18:33N 31°36' E 121°19'0 0.0
2016-Dec-01 17:33N 31°36' E 121°19'0 0.1
2016-Dec-01 16:30N 31°36' E 121°19'0 0.3
2016-Dec-01 15:33N 31°36' E 121°19'0 0.1
2016-Dec-01 14:33N 31°36' E 121°19'0 0.1
2016-Dec-01 13:33N 31°36' E 121°19'0 0.0
2016-Dec-01 12:33N 31°36' E 121°19'0 0.0
2016-Dec-01 11:30N 31°36' E 121°19'0 0.0
2016-Dec-01 10:33N 31°36' E 121°19'0 0.0
2016-Dec-01 09:33N 31°36' E 121°19'0 0.2
2016-Dec-01 08:33N 31°36' E 121°19'0 0.2
2016-Dec-01 07:33N 31°36' E 121°19'6 5.9
2016-Dec-01 06:33N 31°31' E 121°23'1110.9
2016-Dec-01 05:33N 31°24' E 121°33'10 9.7
2016-Dec-01 04:33N 31°20' E 121°43'  
Track history (hours):
 
Tides and Currents Weather Stations Pressure Air Temp Water Temp Dewpoint Dewpoint Depression Visibility Wind Speed Wind Dir Waves Ship Positions

Genco Leader

Last reported at 2016-Dec-02 23:32 UTC. Time now 2016-Dec-03 00:25 UTC.
Position N 31°41' E 121°11'.

Length 225 m; draft 12 m.

Type: Cargo ship. MMSI: 477132000.

Date/timePositionNaut miles runAvg speedWind from/ knotsBaromVisibWave heightAir tempDewpointWater temp
2016-Dec-02 23:32N 31°41' E 121°11'0 0.0
2016-Dec-02 22:29N 31°41' E 121°11'0 0.0
2016-Dec-02 21:32N 31°41' E 121°11'0 0.0
2016-Dec-02 20:32N 31°41' E 121°11'0 0.0
2016-Dec-02 19:33N 31°41' E 121°11'0 0.0
2016-Dec-02 18:29N 31°41' E 121°11'0 0.0
2016-Dec-02 17:32N 31°41' E 121°11'0 0.0
2016-Dec-02 16:32N 31°41' E 121°11'0 0.0
2016-Dec-02 15:32N 31°41' E 121°11'0 0.0
2016-Dec-02 08:30N 31°41' E 121°11'0 0.0
2016-Dec-02 07:21N 31°41' E 121°11'0 0.0
2016-Dec-02 06:30N 31°41' E 121°11'0 0.0
2016-Dec-02 05:30N 31°41' E 121°11'5 4.8
2016-Dec-02 04:33N 31°38' E 121°15'4 3.9
2016-Dec-02 03:30N 31°36' E 121°19'0 0.0
2016-Dec-02 02:30N 31°36' E 121°19'0 0.0
2016-Dec-02 01:33N 31°36' E 121°19'0 0.0
2016-Dec-02 00:33N 31°36' E 121°19'0 0.0
2016-Dec-01 23:33N 31°36' E 121°19'0 0.0
2016-Dec-01 22:30N 31°36' E 121°19'0 0.0
2016-Dec-01 21:30N 31°36' E 121°19'0 0.1
2016-Dec-01 20:30N 31°36' E 121°19'0 0.2
2016-Dec-01 19:33N 31°36' E 121°19'0 0.0
2016-Dec-01 18:33N 31°36' E 121°19'0 0.0
2016-Dec-01 17:33N 31°36' E 121°19'0 0.1
2016-Dec-01 16:30N 31°36' E 121°19'0 0.3
2016-Dec-01 15:33N 31°36' E 121°19'0 0.1
2016-Dec-01 14:33N 31°36' E 121°19'0 0.1
2016-Dec-01 13:33N 31°36' E 121°19'0 0.0
2016-Dec-01 12:33N 31°36' E 121°19'0 0.0
2016-Dec-01 11:30N 31°36' E 121°19'0 0.0
2016-Dec-01 10:33N 31°36' E 121°19'0 0.0
2016-Dec-01 09:33N 31°36' E 121°19'0 0.2
2016-Dec-01 08:33N 31°36' E 121°19'0 0.2
2016-Dec-01 07:33N 31°36' E 121°19'6 5.9
2016-Dec-01 06:33N 31°31' E 121°23'1110.9
2016-Dec-01 05:33N 31°24' E 121°33'10 9.7
2016-Dec-01 04:33N 31°20' E 121°43'  

Dump ship's entire track history